SCP
0 0 0 0 0 0 -0 0 0 0 0 0 0 0 0 0 0 0 0 0 0 0 0 0 0 0 0 0 0 0 -0 -0 -0 -0 -0 -0 -0 -0 -0 -0 -0 -0 -0 -0 -0 -0 -0 -0 -0
0 0 0 0 0 0 -0 0 0 0 0 0 0 0 0 0 0 0 0 0 0 0 0 0 0 0 0 0 0 0 0 0 -0 -0 -0 -0 -0 -0 -0 -0 -0 -0 -0 -0 -0 -0 -0 -0 -0
0 0 0 0 0 -0 -0 0 0 -0 0 0 0 0 0 0 0 0 0 0 0 0 0 0 0 -0 -0 0 0 0 0 0 -0 -0 -0 -0 -0 -0 -0 -0 -0 -0 -0 -0 -0 -0 -0 -0 -0
0 0 0 0 0 0 0 -0 0 0 0 0 0 -0 0 0 0 0 0 0 0 0 0 0 -0 -0 -0 -0 -0 -0 -0 -0 -0 -0 -0 -0 -0 -0 -0 -0 -0 -0 -0 -0 -0 -0 -0 -0 -0
0 0 0 0 0 0 0 -0 -0 0 -0 0 0 0 0 0 -0 -0 -0 0 0 0 0 0 -0 -0 -0 -0 -0 -0 -0 -0 -0 -0 -0 -0 -0 -0 -0 -0 -0 -0 -0 -0 -0 -0 -0 -0 -0
0 0 0 0 0 0 0 -0 0 -0 -0 0 -0 0 0 0 0 0 0 0 0 -0 0 0 -0 -0 -0 -0 -0 -0 -0 -0 -0 -0 -0 -0 -0 -0 -0 -0 -0 -0 -0 -0 -0 -0 -0 -0 -0
0 0 0 0 0 0 0 0 0 0 -0 -0 -0 -0 0 0 -0 -0 -0 0 0 0 -0 0 0 0 -0 -0 -0 -0 -0 -0 -0 -0 -0 -0 -0 -0 -0 -0 -0 -0 -0 -0 -0 -0 -0 -0 -0
0 0 0 0 0 0 0 0 -0 0 0 0 0 -0 0 -0 -0 -0 -0 -0 0 -0 -0 0 0 0 0 0 -0 -0 -0 -0 -0 -0 -0 -0 -0 -0 -0 -0 -0 -0 -0 -0 -0 -0 -0 -0 -0
0 0 0 0 0 0 0 0 0 0 0 0 0 0 0 -0 -0 -0 -0 -0 -0 -0 -0 0 0 0 0 0 0 0 -0 -0 -0 -0 -0 -0 0 0 -0 0 -0 -0 -0 -0 -0 -0 -0 -0 -0
0 0 0 0 0 0 0 0 0 0 0 0 -0 0 0 -0 -0 -0 -0 -0 -0 -0 -0 -0 0 0 0 0 0 0 0 0 0 0 0 0 0 0 0 0 -0 0 -0 -0 -0 0 0 0 0
0 0 0 0 0 0 0 0 0 0 0 -0 -0 0 0 0 -0 -0 -0 -0 -0 -0 -0 -0 -0 0 0 0 0 0 0 0 0 0 0 0 0 0 0 0 0 0 0 0 0 0 0 0 0
0 0 0 0 0 0 0 0 0 0 0 0 0 0 0 -0 -0 -0 -0 -0 -0 -0 -0 -0 -0 -0 0 0 0 0 0 0 0 0 0 0 0 0 0 0 0 0 0 0 0 0 0 0 0
0 0 0 0 0 0 0 0 0 0 0 0 0 0 0 -0 -0 0 0 0 0 -0 -0 -0 -0 -0 0 0 0 0 0 0 0 0 0 0 0 0 0 0 0 0 0 0 0 0 0 0 0
0 0 0 0 0 0 0 0 0 0 0 0 0 0 0 0 -0 0 0 0 -0 -0 -0 -0 -0 -0 -0 0 0 0 0 0 0 0 0 0 0 0 0 0 0 0 0 0 0 0 0 0 0
0 0 0 0 0 0 0 0 0 0 0 0 0 0 0 0 0 0 0 0 -0 0 0 -0 -0 -0 -0 -0 0 0 0 0 0 0 0 0 0 0 0 0 0 0 0 0 0 0 0 0 0
0 0 0 0 0 0 0 0 0 0 0 0 0 0 0 0 0 0 0 0 0 0 -0 -0 -0 -0 -0 -0 0 0 0 0 0 0 0 0 0 0 0 0 0 0 0 0 0 0 0 0 0
0 0 0 0 0 0 0 0 0 0 0 0 0 0 0 0 0 0 0 0 0 0 0 -0 -0 -0 -0 -0 0 0 0 0 0 0 0 0 0 0 0 0 0 0 0 0 0 0 0 0 0
0 0 0 0 0 0 0 0 0 0 0 0 0 0 0 0 0 0 0 0 0 0 0 0 0 0 0 0 0 0 0 0 0 0 0 0 0 0 0 0 0 0 0 0 0 0 0 0 0
0 0 0 0 0 0 0 0 0 0 0 0 0 0 0 0 0 0 0 0 0 0 0 0 0 0 0 0 0 0 0 0 0 0 0 0 0 0 0 0 0 0 0 0 0 0 0 0 0
0 0 0 0 0 0 0 0 0 0 0 0 0 0 0 0 0 0 0 0 0 0 0 0 0 0 0 0 0 0 0 0 0 0 0 0 0 0 0 0 0 0 0 0 0 0 0 0 0
0 0 0 0 0 0 0 0 0 0 0 0 0 0 0 0 0 0 0 0 0 0 0 0 0 0 0 0 0 0 0 0 0 0 0 0 0 0 0 0 0 0 0 0 0 0 0 0 0
0 0 0 0 0 0 0 -0 0 0 0 0 0 0 0 0 0 0 0 0 0 0 0 0 0 0 0 0 0 0 0 0 0 0 0 0 0 0 0 0 0 0 0 0 0 0 0 0 0
0 0 0 0 0 0 0 0 -0 0 0 0 0 0 0 0 0 0 0 0 0 0 0 0 0 0 0 0 0 0 0 0 0 0 0 0 0 0 0 0 0 0 0 0 0 0 0 0 0
0 0 0 0 0 0 0 0 0 0 0 0 0 0 0 0 0 0 0 0 0 0 0 0 0 0 0 0 0 0 0 0 0 0 0 0 0 0 0 0 0 0 0 0 0 0 0 0 0
0 0 0 0 0 0 0 0 0 0 -0 0 0 0 0 0 0 0 0 0 0 0 0 0 0 0 0 0 0 0 0 0 0 0 0 0 0 0 0 0 0 0 0 0 0 0 0 0 0
0 0 0 0 0 0 0 0 0 0 0 0 0 0 0 0 0 0 0 0 0 0 0 0 0 0 0 0 0 0 0 0 0 0 0 0 0 0 0 0 0 0 0 0 0 0 0 0 0
0 0 0 0 0 0 0 0 0 0 0 0 0 0 0 0 0 0 0 0 0 0 0 0 0 0 0 0 0 0 0 0 0 0 0 0 0 0 0 0 0 0 0 0 0 0 0 0 0
0 0 0 0 0 0 0 0 0 0 0 0 0 0 0 0 0 0 0 0 0 0 0 0 0 0 0 0 0 0 0 0 0 0 0 0 0 0 0 0 0 0 0 0 0 0 0 0 0
0 0 0 0 0 0 0 0 0 0 0 0 0 0 0 0 0 0 0 0 0 0 0 0 0 0 0 0 0 0 0 0 0 0 0 0 0 0 0 0 0 0 0 0 0 0 0 0 0
0 0 0 0 0 0 0 0 0 0 0 0 0 0 0 0 0 0 0 0 0 0 0 0 0 0 0 0 0 0 0 0 0 0 0 0 0 0 0 0 0 0 0 0 0 0 0 0 0
Wind_Speed_500mb
12 11 9 5 7 10 1 6 2 7 3 6 18 9 12 6 9 7 15 40 37 33 32 32 27 22 19 18 17 17 18 19 21 24 21 14 17 21 26 28 32 36 41 37 33 32 33 30 30
13 10 5 5 9 7 8 5 9 9 12 28 20 12 4 2 7 12 33 38 39 34 33 34 29 23 21 20 19 18 18 17 18 21 23 13 15 21 26 26 31 33 37 35 35 31 31 33 33
12 7 2 9 7 8 9 9 10 8 28 7 7 4 4 7 9 29 32 38 40 35 33 32 28 25 22 19 19 18 17 17 17 17 23 16 14 18 23 24 24 32 34 31 31 32 35 35 34
10 6 11 8 7 6 5 10 14 16 6 7 10 8 4 5 16 25 39 38 39 36 33 32 29 26 23 21 19 17 16 15 15 15 19 23 14 15 20 21 18 24 35 30 31 31 30 33 32
9 7 8 6 4 4 6 11 26 9 10 9 10 7 3 11 17 25 40 37 37 37 34 32 29 27 24 23 20 17 15 14 14 16 20 23 18 9 12 15 12 14 22 19 19 21 26 29 33
6 6 8 3 6 4 2 18 14 9 9 13 7 14 7 18 17 29 30 36 31 33 35 34 31 28 25 23 19 16 15 14 13 14 17 20 19 8 5 11 7 11 16 16 17 20 22 25 23
10 7 9 7 6 2 8 21 11 15 14 11 11 11 6 25 22 24 28 37 30 32 36 37 34 31 26 23 20 17 14 12 12 13 15 20 16 13 3 7 4 9 12 13 13 16 19 20 15
7 10 8 5 9 7 11 21 7 18 13 12 20 7 7 31 29 28 31 35 32 34 40 40 38 35 32 28 23 19 16 13 11 10 11 10 8 6 2 3 6 8 9 11 11 14 15 15 12
8 9 5 9 10 5 16 9 11 7 13 17 21 12 9 28 36 38 42 40 38 38 43 43 42 39 35 31 28 24 21 18 15 13 12 11 10 8 6 4 8 10 9 11 12 13 14 13 11
8 7 17 10 7 8 22 9 21 8 10 15 20 22 16 32 41 45 52 52 49 45 47 47 45 42 40 37 34 30 27 23 19 16 14 13 11 10 9 8 9 11 10 11 12 12 12 9 7
8 10 10 7 6 12 18 8 16 14 7 24 35 32 27 39 45 45 47 47 45 43 45 46 44 43 44 44 41 37 33 29 25 22 18 16 15 14 12 10 10 9 9 9 11 11 10 8 5
7 5 14 10 9 8 10 12 10 25 17 10 27 25 34 41 48 48 48 49 47 46 42 43 40 46 46 47 46 43 39 35 31 27 24 20 19 18 15 13 11 10 12 14 14 12 9 6 6
6 7 11 9 10 4 6 8 11 27 29 27 18 28 38 41 42 44 45 46 49 49 48 48 46 43 42 50 51 49 46 42 36 33 29 24 22 21 20 17 15 15 17 16 14 11 8 6 7
8 10 5 8 8 5 4 6 4 9 11 39 32 26 32 40 40 46 53 52 53 52 51 51 53 48 46 42 50 54 51 45 45 40 36 29 27 26 25 22 19 20 20 19 18 14 12 11 12
13 5 4 7 6 3 6 13 17 31 9 10 35 33 33 40 48 50 43 47 51 52 55 57 56 54 58 52 45 46 50 50 49 46 43 37 34 33 31 30 27 26 26 27 25 22 19 17 18
8 9 3 4 6 2 8 17 8 8 25 29 26 26 37 41 46 47 49 51 56 59 61 62 65 64 63 62 56 51 47 46 47 48 45 47 42 41 39 37 37 34 33 32 31 28 26 25 25
12 6 6 12 10 5 6 13 7 1 3 9 15 18 26 32 38 44 47 53 55 60 64 68 71 73 72 69 64 59 56 50 51 55 56 43 50 48 46 43 42 45 43 40 38 38 35 34 33
11 6 6 8 4 2 2 20 19 28 18 23 29 37 40 42 45 41 41 44 50 59 65 68 72 75 76 77 73 69 69 66 57 61 60 51 51 52 53 54 51 53 54 50 48 48 46 44 42
12 8 8 7 2 5 11 16 24 45 41 47 51 54 56 55 54 51 50 54 58 59 65 71 73 74 77 83 85 82 81 77 71 64 66 65 62 59 58 58 59 61 60 57 56 56 53 51 52
9 8 6 6 5 5 9 22 21 26 32 51 57 61 65 68 66 48 31 29 40 63 65 66 72 73 74 80 81 85 81 80 76 71 67 67 64 67 66 66 63 65 67 68 66 63 64 63 59
5 11 9 9 5 6 11 17 13 11 23 47 59 63 60 53 53 37 29 34 36 34 56 66 65 68 70 75 79 87 86 83 83 80 79 72 69 71 70 72 69 72 70 74 74 74 73 72 69
11 14 9 6 7 7 5 11 12 9 19 15 51 46 43 40 37 34 27 23 20 32 38 52 60 62 67 75 81 85 86 86 85 83 81 76 75 68 74 75 71 77 89 82 76 82 85 85 75
12 12 11 5 8 5 4 2 14 4 11 20 20 17 19 23 25 20 15 7 8 16 26 32 44 55 58 68 79 82 84 81 75 72 74 72 77 73 63 73 77 71 72 93 83 89 93 96 97
19 14 14 9 5 5 14 14 11 10 14 6 5 25 18 23 20 17 22 19 11 3 8 17 28 37 44 51 63 77 81 76 73 73 72 72 67 65 59 70 73 77 78 74 82 108 90 107 111
6 14 3 5 3 11 2 1 14 15 13 5 11 23 15 13 5 6 9 12 11 10 5 2 8 15 25 32 42 53 62 67 69 70 69 69 65 63 65 67 67 70 77 80 96 93 101 93 107
12 15 12 16 9 6 5 14 12 7 5 6 11 17 18 18 16 15 16 16 15 16 14 11 7 2 4 11 18 27 36 45 51 56 57 57 58 59 59 58 60 63 67 69 79 85 84 97 109
11 12 10 14 6 6 9 13 20 10 12 18 22 30 33 31 27 23 19 16 15 14 13 12 8 4 1 5 12 19 26 32 38 40 44 47 49 51 52 52 55 60 67 72 81 87 93 90 93
15 19 7 4 7 7 8 10 11 8 12 12 16 32 39 36 33 33 31 29 26 24 23 19 16 11 7 2 4 10 17 22 26 31 33 35 37 41 46 51 54 57 62 68 73 80 84 86 91
7 7 4 10 11 12 4 12 14 13 16 20 20 33 31 31 33 34 35 31 31 30 28 28 25 23 19 15 11 7 5 7 8 12 17 23 28 32 39 44 50 54 58 64 70 77 82 86 86
6 20 17 13 13 4 6 14 6 14 19 32 35 36 35 35 36 35 34 29 27 27 24 23 23 21 21 17 13 10 6 4 8 14 20 24 28 33 39 43 48 52 55 59 64 70 76 81 83
Wind_Direction_500mb
236 229 236 242 60 66 114 256 231 120 152 190 151 172 178 126 162 205 155 162 168 169 164 163 156 149 137 122 115 111 105 108 120 120 107 94 78 71 69 90 92 90 89 95 89 85 86 93 98
219 211 203 116 87 75 265 255 200 166 145 118 112 114 97 142 126 146 148 158 165 170 162 164 157 154 143 134 127 114 105 105 107 116 112 100 83 77 75 87 97 91 93 95 88 83 84 89 93
198 188 161 89 103 166 190 201 173 140 151 123 130 113 115 143 144 153 162 164 166 173 166 164 162 160 151 142 132 121 114 108 109 114 120 118 93 84 82 83 93 93 96 96 90 83 86 87 89
171 137 68 84 177 231 205 177 153 135 172 184 149 80 115 146 153 161 168 168 168 173 172 171 169 167 159 153 144 133 122 115 111 114 121 121 108 98 81 83 89 92 104 103 97 91 91 92 93
150 89 62 73 286 274 252 174 153 139 152 153 154 183 198 164 151 162 169 169 170 174 178 178 176 174 169 163 156 146 134 124 118 124 129 130 140 136 104 86 83 88 109 109 99 91 95 101 107
95 83 69 163 254 321 94 159 151 140 163 153 147 148 177 169 155 165 173 172 169 183 184 185 183 182 177 172 166 157 146 135 127 131 130 133 158 162 111 100 98 105 116 117 101 100 100 109 110
114 85 165 162 203 26 177 166 166 166 171 202 160 135 209 186 160 168 169 177 177 189 195 192 191 189 187 183 179 172 163 150 144 147 141 148 158 148 150 73 135 121 123 119 115 105 103 111 107
124 91 113 204 189 217 176 171 208 172 195 175 178 199 228 193 174 174 176 183 187 195 202 200 198 197 195 192 190 186 180 174 170 165 167 170 178 197 280 22 158 136 137 131 127 118 113 113 113
134 67 161 197 165 204 165 168 171 189 169 179 197 225 230 185 181 179 182 186 193 198 204 207 206 204 203 201 199 196 194 193 191 192 190 194 201 212 228 204 177 164 162 146 137 125 113 110 122
103 120 206 193 192 191 178 188 160 168 187 211 219 219 215 188 189 188 190 192 198 202 204 210 214 212 209 209 208 207 206 206 205 206 208 209 216 218 226 209 185 182 160 154 145 130 120 120 126
142 182 190 211 179 179 171 161 165 160 233 220 222 217 210 195 198 200 202 205 205 205 205 206 213 219 219 216 215 215 214 214 213 214 216 222 225 227 222 216 204 195 169 162 157 152 153 150 138
137 184 162 169 172 163 177 159 189 204 212 225 247 236 222 205 206 209 211 211 210 208 209 210 213 220 224 226 225 223 220 219 219 220 222 228 230 227 221 217 210 195 185 181 178 179 177 167 163
162 180 183 188 181 192 211 233 230 247 239 242 241 222 220 221 221 221 221 219 218 217 218 218 221 223 222 230 230 230 227 223 224 225 225 228 229 225 219 217 210 203 197 191 197 195 202 203 193
192 136 168 188 193 215 214 269 221 267 246 226 222 218 222 226 233 224 222 224 224 225 226 225 226 231 230 234 238 236 234 233 224 227 227 228 226 223 222 219 216 209 205 205 209 218 226 219 206
102 117 348 222 202 207 206 287 236 243 220 219 229 231 232 232 232 234 238 237 234 234 232 232 232 234 232 237 242 242 242 239 237 232 226 232 229 226 226 225 222 217 216 215 218 223 229 229 224
73 54 129 315 173 145 153 264 274 314 228 241 241 236 239 239 240 244 243 243 242 239 238 236 235 236 237 237 240 244 244 241 240 239 234 231 236 233 232 232 231 230 226 227 229 233 236 235 236
10 180 199 317 212 115 155 264 285 129 223 231 223 232 249 252 248 248 246 246 244 244 242 240 238 238 238 240 242 246 248 247 237 236 241 235 236 239 240 238 239 239 237 237 237 238 237 238 237
191 181 226 236 231 106 212 265 281 279 285 274 271 272 272 268 263 263 258 254 250 246 243 241 241 241 239 240 242 242 243 246 244 239 242 244 244 242 243 243 237 239 239 240 243 242 241 236 234
127 147 187 241 187 164 236 266 274 281 287 279 271 274 276 274 277 274 267 261 254 246 242 239 239 238 238 236 236 238 240 244 246 243 243 245 246 246 246 245 245 240 239 242 246 244 242 241 239
122 142 217 291 44 162 348 277 267 268 265 266 272 275 274 280 284 287 273 261 262 247 241 239 238 237 238 240 240 240 243 246 250 252 248 244 249 248 248 246 247 250 245 240 240 245 246 244 241
167 161 198 206 14 58 345 291 289 292 266 269 266 270 276 281 292 289 280 274 263 258 241 238 239 238 237 240 240 240 241 245 248 246 251 252 248 247 249 249 253 248 248 250 251 246 244 247 247
194 202 163 152 94 232 21 284 297 284 301 293 279 281 292 299 294 290 279 268 266 248 249 241 240 241 240 239 240 240 240 240 246 247 248 256 251 252 254 251 252 258 249 245 250 251 247 245 246
203 126 137 91 105 56 322 336 270 343 284 268 308 15 33 36 41 45 40 352 247 239 235 235 238 242 242 240 241 242 242 245 244 247 249 253 251 256 262 259 258 263 260 256 254 253 250 253 246
155 83 54 52 87 292 207 177 270 201 212 264 113 358 20 27 25 44 46 45 58 115 219 236 241 237 236 241 242 243 245 245 245 248 248 249 257 265 266 272 268 264 261 267 264 256 257 251 249
88 95 15 343 350 230 339 242 250 254 238 244 303 326 330 333 24 42 45 45 58 61 60 294 265 244 237 239 242 246 249 252 255 256 257 256 260 266 271 274 271 273 271 269 263 263 258 264 266
188 152 163 193 199 244 71 234 248 188 51 72 79 83 90 92 87 81 69 56 40 24 15 10 9 357 221 232 236 239 243 248 254 259 265 269 270 271 273 276 276 278 275 275 267 276 263 270 257
200 214 159 104 31 54 217 284 302 125 82 79 82 86 83 89 79 76 69 51 42 28 22 23 31 42 335 203 214 228 237 244 252 258 261 261 262 264 266 266 266 268 270 272 267 270 261 278 262
171 148 77 12 144 236 264 271 228 156 153 143 79 73 74 78 80 79 78 73 72 72 72 71 72 77 89 120 210 232 239 244 251 256 259 261 262 264 264 264 261 259 261 263 267 269 271 270 270
136 179 128 130 158 181 217 253 222 181 166 132 106 89 87 87 91 90 86 82 80 83 85 83 85 83 86 90 104 133 182 201 235 262 274 274 267 266 265 266 265 264 263 262 264 267 271 271 269
221 189 164 176 213 229 151 253 320 167 145 127 117 109 103 95 90 92 90 89 88 80 79 75 75 75 77 74 80 81 66 8 322 304 293 288 288 286 283 277 274 272 270 268 268 268 269 270 272
Wind_Speed_850mb
12 11 9 5 7 10 1 6 2 7 3 6 18 9 12 6 9 7 15 40 37 33 32 32 27 22 19 18 17 17 18 19 21 24 21 14 17 21 26 28 32 36 41 37 33 32 33 30 30
13 10 5 5 9 7 8 5 9 9 12 28 20 12 4 2 7 12 33 38 39 34 33 34 29 23 21 20 19 18 18 17 18 21 23 13 15 21 26 26 31 33 37 35 35 31 31 33 33
12 7 2 9 7 8 9 9 10 8 28 7 7 4 4 7 9 29 32 38 40 35 33 32 28 25 22 19 19 18 17 17 17 17 23 16 14 18 23 24 24 32 34 31 31 32 35 35 34
10 6 11 8 7 6 5 10 14 16 6 7 10 8 4 5 16 25 39 38 39 36 33 32 29 26 23 21 19 17 16 15 15 15 19 23 14 15 20 21 18 24 35 30 31 31 30 33 32
9 7 8 6 4 4 6 11 26 9 10 9 10 7 3 11 17 25 40 37 37 37 34 32 29 27 24 23 20 17 15 14 14 16 20 23 18 9 12 15 12 14 22 19 19 21 26 29 33
6 6 8 3 6 4 2 18 14 9 9 13 7 14 7 18 17 29 30 36 31 33 35 34 31 28 25 23 19 16 15 14 13 14 17 20 19 8 5 11 7 11 16 16 17 20 22 25 23
10 7 9 7 6 2 8 21 11 15 14 11 11 11 6 25 22 24 28 37 30 32 36 37 34 31 26 23 20 17 14 12 12 13 15 20 16 13 3 7 4 9 12 13 13 16 19 20 15
7 10 8 5 9 7 11 21 7 18 13 12 20 7 7 31 29 28 31 35 32 34 40 40 38 35 32 28 23 19 16 13 11 10 11 10 8 6 2 3 6 8 9 11 11 14 15 15 12
8 9 5 9 10 5 16 9 11 7 13 17 21 12 9 28 36 38 42 40 38 38 43 43 42 39 35 31 28 24 21 18 15 13 12 11 10 8 6 4 8 10 9 11 12 13 14 13 11
8 7 17 10 7 8 22 9 21 8 10 15 20 22 16 32 41 45 52 52 49 45 47 47 45 42 40 37 34 30 27 23 19 16 14 13 11 10 9 8 9 11 10 11 12 12 12 9 7
8 10 10 7 6 12 18 8 16 14 7 24 35 32 27 39 45 45 47 47 45 43 45 46 44 43 44 44 41 37 33 29 25 22 18 16 15 14 12 10 10 9 9 9 11 11 10 8 5
7 5 14 10 9 8 10 12 10 25 17 10 27 25 34 41 48 48 48 49 47 46 42 43 40 46 46 47 46 43 39 35 31 27 24 20 19 18 15 13 11 10 12 14 14 12 9 6 6
6 7 11 9 10 4 6 8 11 27 29 27 18 28 38 41 42 44 45 46 49 49 48 48 46 43 42 50 51 49 46 42 36 33 29 24 22 21 20 17 15 15 17 16 14 11 8 6 7
8 10 5 8 8 5 4 6 4 9 11 39 32 26 32 40 40 46 53 52 53 52 51 51 53 48 46 42 50 54 51 45 45 40 36 29 27 26 25 22 19 20 20 19 18 14 12 11 12
13 5 4 7 6 3 6 13 17 31 9 10 35 33 33 40 48 50 43 47 51 52 55 57 56 54 58 52 45 46 50 50 49 46 43 37 34 33 31 30 27 26 26 27 25 22 19 17 18
8 9 3 4 6 2 8 17 8 8 25 29 26 26 37 41 46 47 49 51 56 59 61 62 65 64 63 62 56 51 47 46 47 48 45 47 42 41 39 37 37 34 33 32 31 28 26 25 25
12 6 6 12 10 5 6 13 7 1 3 9 15 18 26 32 38 44 47 53 55 60 64 68 71 73 72 69 64 59 56 50 51 55 56 43 50 48 46 43 42 45 43 40 38 38 35 34 33
11 6 6 8 4 2 2 20 19 28 18 23 29 37 40 42 45 41 41 44 50 59 65 68 72 75 76 77 73 69 69 66 57 61 60 51 51 52 53 54 51 53 54 50 48 48 46 44 42
12 8 8 7 2 5 11 16 24 45 41 47 51 54 56 55 54 51 50 54 58 59 65 71 73 74 77 83 85 82 81 77 71 64 66 65 62 59 58 58 59 61 60 57 56 56 53 51 52
9 8 6 6 5 5 9 22 21 26 32 51 57 61 65 68 66 48 31 29 40 63 65 66 72 73 74 80 81 85 81 80 76 71 67 67 64 67 66 66 63 65 67 68 66 63 64 63 59
5 11 9 9 5 6 11 17 13 11 23 47 59 63 60 53 53 37 29 34 36 34 56 66 65 68 70 75 79 87 86 83 83 80 79 72 69 71 70 72 69 72 70 74 74 74 73 72 69
11 14 9 6 7 7 5 11 12 9 19 15 51 46 43 40 37 34 27 23 20 32 38 52 60 62 67 75 81 85 86 86 85 83 81 76 75 68 74 75 71 77 89 82 76 82 85 85 75
12 12 11 5 8 5 4 2 14 4 11 20 20 17 19 23 25 20 15 7 8 16 26 32 44 55 58 68 79 82 84 81 75 72 74 72 77 73 63 73 77 71 72 93 83 89 93 96 97
19 14 14 9 5 5 14 14 11 10 14 6 5 25 18 23 20 17 22 19 11 3 8 17 28 37 44 51 63 77 81 76 73 73 72 72 67 65 59 70 73 77 78 74 82 108 90 107 111
6 14 3 5 3 11 2 1 14 15 13 5 11 23 15 13 5 6 9 12 11 10 5 2 8 15 25 32 42 53 62 67 69 70 69 69 65 63 65 67 67 70 77 80 96 93 101 93 107
12 15 12 16 9 6 5 14 12 7 5 6 11 17 18 18 16 15 16 16 15 16 14 11 7 2 4 11 18 27 36 45 51 56 57 57 58 59 59 58 60 63 67 69 79 85 84 97 109
11 12 10 14 6 6 9 13 20 10 12 18 22 30 33 31 27 23 19 16 15 14 13 12 8 4 1 5 12 19 26 32 38 40 44 47 49 51 52 52 55 60 67 72 81 87 93 90 93
15 19 7 4 7 7 8 10 11 8 12 12 16 32 39 36 33 33 31 29 26 24 23 19 16 11 7 2 4 10 17 22 26 31 33 35 37 41 46 51 54 57 62 68 73 80 84 86 91
7 7 4 10 11 12 4 12 14 13 16 20 20 33 31 31 33 34 35 31 31 30 28 28 25 23 19 15 11 7 5 7 8 12 17 23 28 32 39 44 50 54 58 64 70 77 82 86 86
6 20 17 13 13 4 6 14 6 14 19 32 35 36 35 35 36 35 34 29 27 27 24 23 23 21 21 17 13 10 6 4 8 14 20 24 28 33 39 43 48 52 55 59 64 70 76 81 83
Wind_Direction_850mb
236 229 236 242 60 66 114 256 231 120 152 190 151 172 178 126 162 205 155 162 168 169 164 163 156 149 137 122 115 111 105 108 120 120 107 94 78 71 69 90 92 90 89 95 89 85 86 93 98
219 211 203 116 87 75 265 255 200 166 145 118 112 114 97 142 126 146 148 158 165 170 162 164 157 154 143 134 127 114 105 105 107 116 112 100 83 77 75 87 97 91 93 95 88 83 84 89 93
198 188 161 89 103 166 190 201 173 140 151 123 130 113 115 143 144 153 162 164 166 173 166 164 162 160 151 142 132 121 114 108 109 114 120 118 93 84 82 83 93 93 96 96 90 83 86 87 89
171 137 68 84 177 231 205 177 153 135 172 184 149 80 115 146 153 161 168 168 168 173 172 171 169 167 159 153 144 133 122 115 111 114 121 121 108 98 81 83 89 92 104 103 97 91 91 92 93
150 89 62 73 286 274 252 174 153 139 152 153 154 183 198 164 151 162 169 169 170 174 178 178 176 174 169 163 156 146 134 124 118 124 129 130 140 136 104 86 83 88 109 109 99 91 95 101 107
95 83 69 163 254 321 94 159 151 140 163 153 147 148 177 169 155 165 173 172 169 183 184 185 183 182 177 172 166 157 146 135 127 131 130 133 158 162 111 100 98 105 116 117 101 100 100 109 110
114 85 165 162 203 26 177 166 166 166 171 202 160 135 209 186 160 168 169 177 177 189 195 192 191 189 187 183 179 172 163 150 144 147 141 148 158 148 150 73 135 121 123 119 115 105 103 111 107
124 91 113 204 189 217 176 171 208 172 195 175 178 199 228 193 174 174 176 183 187 195 202 200 198 197 195 192 190 186 180 174 170 165 167 170 178 197 280 22 158 136 137 131 127 118 113 113 113
134 67 161 197 165 204 165 168 171 189 169 179 197 225 230 185 181 179 182 186 193 198 204 207 206 204 203 201 199 196 194 193 191 192 190 194 201 212 228 204 177 164 162 146 137 125 113 110 122
103 120 206 193 192 191 178 188 160 168 187 211 219 219 215 188 189 188 190 192 198 202 204 210 214 212 209 209 208 207 206 206 205 206 208 209 216 218 226 209 185 182 160 154 145 130 120 120 126
142 182 190 211 179 179 171 161 165 160 233 220 222 217 210 195 198 200 202 205 205 205 205 206 213 219 219 216 215 215 214 214 213 214 216 222 225 227 222 216 204 195 169 162 157 152 153 150 138
137 184 162 169 172 163 177 159 189 204 212 225 247 236 222 205 206 209 211 211 210 208 209 210 213 220 224 226 225 223 220 219 219 220 222 228 230 227 221 217 210 195 185 181 178 179 177 167 163
162 180 183 188 181 192 211 233 230 247 239 242 241 222 220 221 221 221 221 219 218 217 218 218 221 223 222 230 230 230 227 223 224 225 225 228 229 225 219 217 210 203 197 191 197 195 202 203 193
192 136 168 188 193 215 214 269 221 267 246 226 222 218 222 226 233 224 222 224 224 225 226 225 226 231 230 234 238 236 234 233 224 227 227 228 226 223 222 219 216 209 205 205 209 218 226 219 206
102 117 348 222 202 207 206 287 236 243 220 219 229 231 232 232 232 234 238 237 234 234 232 232 232 234 232 237 242 242 242 239 237 232 226 232 229 226 226 225 222 217 216 215 218 223 229 229 224
73 54 129 315 173 145 153 264 274 314 228 241 241 236 239 239 240 244 243 243 242 239 238 236 235 236 237 237 240 244 244 241 240 239 234 231 236 233 232 232 231 230 226 227 229 233 236 235 236
10 180 199 317 212 115 155 264 285 129 223 231 223 232 249 252 248 248 246 246 244 244 242 240 238 238 238 240 242 246 248 247 237 236 241 235 236 239 240 238 239 239 237 237 237 238 237 238 237
191 181 226 236 231 106 212 265 281 279 285 274 271 272 272 268 263 263 258 254 250 246 243 241 241 241 239 240 242 242 243 246 244 239 242 244 244 242 243 243 237 239 239 240 243 242 241 236 234
127 147 187 241 187 164 236 266 274 281 287 279 271 274 276 274 277 274 267 261 254 246 242 239 239 238 238 236 236 238 240 244 246 243 243 245 246 246 246 245 245 240 239 242 246 244 242 241 239
122 142 217 291 44 162 348 277 267 268 265 266 272 275 274 280 284 287 273 261 262 247 241 239 238 237 238 240 240 240 243 246 250 252 248 244 249 248 248 246 247 250 245 240 240 245 246 244 241
167 161 198 206 14 58 345 291 289 292 266 269 266 270 276 281 292 289 280 274 263 258 241 238 239 238 237 240 240 240 241 245 248 246 251 252 248 247 249 249 253 248 248 250 251 246 244 247 247
194 202 163 152 94 232 21 284 297 284 301 293 279 281 292 299 294 290 279 268 266 248 249 241 240 241 240 239 240 240 240 240 246 247 248 256 251 252 254 251 252 258 249 245 250 251 247 245 246
203 126 137 91 105 56 322 336 270 343 284 268 308 15 33 36 41 45 40 352 247 239 235 235 238 242 242 240 241 242 242 245 244 247 249 253 251 256 262 259 258 263 260 256 254 253 250 253 246
155 83 54 52 87 292 207 177 270 201 212 264 113 358 20 27 25 44 46 45 58 115 219 236 241 237 236 241 242 243 245 245 245 248 248 249 257 265 266 272 268 264 261 267 264 256 257 251 249
88 95 15 343 350 230 339 242 250 254 238 244 303 326 330 333 24 42 45 45 58 61 60 294 265 244 237 239 242 246 249 252 255 256 257 256 260 266 271 274 271 273 271 269 263 263 258 264 266
188 152 163 193 199 244 71 234 248 188 51 72 79 83 90 92 87 81 69 56 40 24 15 10 9 357 221 232 236 239 243 248 254 259 265 269 270 271 273 276 276 278 275 275 267 276 263 270 257
200 214 159 104 31 54 217 284 302 125 82 79 82 86 83 89 79 76 69 51 42 28 22 23 31 42 335 203 214 228 237 244 252 258 261 261 262 264 266 266 266 268 270 272 267 270 261 278 262
171 148 77 12 144 236 264 271 228 156 153 143 79 73 74 78 80 79 78 73 72 72 72 71 72 77 89 120 210 232 239 244 251 256 259 261 262 264 264 264 261 259 261 263 267 269 271 270 270
136 179 128 130 158 181 217 253 222 181 166 132 106 89 87 87 91 90 86 82 80 83 85 83 85 83 86 90 104 133 182 201 235 262 274 274 267 266 265 266 265 264 263 262 264 267 271 271 269
221 189 164 176 213 229 151 253 320 167 145 127 117 109 103 95 90 92 90 89 88 80 79 75 75 75 77 74 80 81 66 8 322 304 293 288 288 286 283 277 274 272 270 268 268 268 269 270 272